Regional Weather Roundup
Issued by NWS

Home | Current Version | Previous Version | Text Only | Print | Product List | Glossary Off
Versions: 1 2 3 4 5 6 7 8 9 10 11 12 13 14 15 16 17 18 19 20 21 22 23 24 25 26 27 28 29 30 31 32 33 34 35 36 37 38 39 40 41 42 43 44 45 46 47 48 49 50

000
ASUS43 KIND 280659
RWRIN

WEATHER ROUNDUP FOR INDIANA
NATIONAL WEATHER SERVICE INDIANAPOLIS IN
300 AM EDT SAT MAR 28 2015

NOTE: "FAIR" INDICATES FEW OR NO CLOUDS BELOW 12,000 FEET WITH NO
SIGNIFICANT WEATHER AND/OR OBSTRUCTIONS TO VISIBILITY.

* - STATION DOES NOT REPORT WEATHER SUCH AS PRECIPITATION OR FOG.

+ - STATION NOT QUALITY CONTROLLED BY THE NATIONAL WEATHER SERVICE.
    USE DATA WITH CAUTION...ESPECIALLY DEWPOINT AND RELATIVE
    HUMIDITY OBSERVATIONS.

INZ001>003-010>013-019-020-280800-
NORTHWEST INDIANA

CITY           SKY/WX    TMP DP  RH WIND       PRES   REMARKS
GARY /AIRPORT/ CLEAR     27   9  47 N12       30.22S WCI  17
KNOX *+          N/A     18   5  57 N6        30.19S WCI   9

$$

LMZ046-743>745-280800-
SOUTHERN LAKE MICHIGAN

STATION/POSITION TIME  TEMP WIND        PRES
                       AIR  DIR/SP/G
                 (UTC) (F)  (DEG/KT/KT) (MB)
BURNS HARBOR     0600   26   20/ 15/ 20 1023.0S
MICHIGAN CITY    0600   24  360/ 16/ 19   N/A

$$

INZ004-005-014>016-021>024-280800-
NORTH CENTRAL INDIANA

CITY           SKY/WX    TMP DP  RH WIND       PRES   REMARKS
GOSHEN         CLEAR     18   9  68 N7        30.17S WCI   9
PERU/GRISSOM   CLEAR     19  12  75 N7        30.16R WCI  10
SOUTH BEND     CLEAR     16   8  71 N6        30.20R WCI   7
WARSAW +       CLEAR     18  12  79 N3        30.17S

$$

INZ006>009-017-018-025>027-280800-
NORTHEAST INDIANA

CITY           SKY/WX    TMP DP  RH WIND       PRES   REMARKS
ANGOLA *+      CLEAR     18   7  62 N5        30.15S WCI  11
AUBURN +       CLEAR     19  12  73 N6        30.17R WCI  11
FORT WAYNE     CLEAR     19  13  77 N7        30.16S WCI  10

$$

INZ028-029-035-036-043>045-051>053-280800-
WEST CENTRAL INDIANA

CITY           SKY/WX    TMP DP  RH WIND       PRES   REMARKS
CRAWFORDSVL +  CLEAR     18   9  68 N6        30.19S WCI  10
GREENCASTLE +  CLEAR     21  10  63 N6        30.19R WCI  14
LAFAYETTE      CLEAR     18  13  80 NW3       30.21S
TERRE HAUTE    CLEAR     23  14  68 N7        30.21S WCI  15

$$

INZ030>032-037>040-046>048-054>057-064-065-280800-
CENTRAL INDIANA

CITY           SKY/WX    TMP DP  RH WIND       PRES   REMARKS
CP ATTERBURY + CLEAR     21  14  73 N9        30.18R WCI  11
FRANKFORT +    CLEAR     19  15  84 NW6       30.19S WCI  11
GREENWOOD *+   CLEAR     21  10  63 N6        30.17  WCI  14
INDIANAPOLIS   MOCLDY    21  12  68 N10       30.16S WCI  10
-EAGLE CREEK   PTCLDY    20  12  71 N9        30.17S WCI   9
KOKOMO *+        N/A     19  10  68 N8        30.17S WCI   9
MT COMFORT *+  CLEAR     19   9  63 N8        30.17R WCI   9
SHELBYVILLE    CLEAR     22  13  68 N8        30.16S WCI  12

$$

INZ033-034-041-042-049-050-058-059-280800-
EAST CENTRAL INDIANA

CITY           SKY/WX    TMP DP  RH WIND       PRES   REMARKS
MUNCIE         CLEAR     20  14  77 NW6       30.15S WCI  12

$$

INZ060-061-067>069-081>083-085>088-280800-
SOUTHWEST INDIANA

CITY           SKY/WX    TMP DP  RH WIND       PRES   REMARKS
EVANSVILLE     CLEAR     29  17  61 CALM      30.21R
HUNTINGBURG *+ CLEAR     25  16  68 NE6       30.19R WCI  18

$$

INZ062-063-066-070>080-084-089>092-280800-
SOUTH CENTRAL AND SOUTHEAST INDIANA

CITY           SKY/WX    TMP DP  RH WIND       PRES   REMARKS
BLOOMINGTON    CLEAR     22  12  65 N5        30.17R WCI  16
SEYMOUR +      CLEAR     25  12  58 N10       30.17R WCI  15

$$




USA.gov is the U.S. government's official web portal to all federal, state and local government web resources and services.